Location: Les Salelles
(44.4192°N, 4.1044°E)
Time: 16:08:39
(UTC+00:00)

NOAA 11 - Pass Details

Date: 20 January 2021
Orbit: 832 x 850 km, 98.4° (Epoch: 26 February)

Event Time Altitude Azimuth Distance (km) Brightness Sun altitude
Rises 17:17:05 0° 165° (SSE) 3,400 7.4 -7.4°
Reaches altitude 10° 17:19:27 10° 165° (SSE) 2,470 6.7 -7.8°
Maximum altitude 17:24:57 89° 251° (WSW) 857 4.3 -8.7°
Drops below altitude 10° 17:30:29 10° 346° (NNW) 2,485 6.6 -9.7°
Sets 17:32:52 0° 347° (NNW) 3,423 7.3 -10.1°
